Content
SEND FEEDBACK

Daily
Averages
Monthly
Summary
United States of America

BIG STONE CITY, SOUTH DAKOTA


Home > North America > United States > South Dakota
Elevation: 1110 feet     Latitude: 45 18N     Longitude: 096 30W

WEATHER
 
SELECT A DAY
Number of Records: 432,297;   Date Range: 2/3/97 - 8/12/14
 
SHARE

PRINT THIS DATA

[ ← Previous Day ]
WEATHER ALMANAC - JANUARY 23, 2013
[ Next Day → ]
[ °C ]   °F
Weather ElementAverageHighLow
Temperature0.6 °F6.8 °F (12:34 am)-11.2 °F (10:34 pm)
Dewpoint-6.8 °F3.2 °F (6:54 am)-20.2 °F (10:14 pm)
Humidity71.5 %85 % (3:14 am)59 % (7:14 pm)
Barometer30.35 in30.62 in (11:54 pm)30.13 in (2:34 am)
Wind Speed13.3 mph26.5 mph (4:14 pm)
Wind Gust32.2 mph (4:33 pm)
Weather ElementAverage
Visibility8.6 mi
Wind DirectionWNW (282.4 °)

Weather ElementTotal
Precipitation---
Heating Degree Days67.2 (Base 65)
Averaged from 70 records on January 23, 2013
WEATHER CONDITIONS BREAKOUT
WIND DIRECTION BREAKOUT
WEATHER BY HOUR - JANUARY 23, 2013
[ °C ]   °F
Local TimeTemperatureDewpointHumidityBarometerVisibilityWind DirectionWind SpeedGust SpeedPrecipitationEventsConditions
12:34 AM6.8 °F-0.4 °F72 %30.16 in5.0 miSSE (160°)4.6 mphSnowLight Snow
12:54 AM6.8 °F1.4 °F79 %30.15 in4.0 miSSE (160°)4.6 mphSnowLight Snow
1:14 AM6.8 °F1.4 °F79 %30.14 in4.0 miCalmSnowLight Snow
1:34 AM6.8 °F1.4 °F79 %30.15 in3.0 miCalmSnowLight Snow
1:54 AM6.8 °F1.4 °F79 %30.14 in5.0 miSE (130°)3.5 mphSnowLight Snow
2:13 AM6.8 °F1.4 °F79 %30.14 in5.0 miSE (140°)4.6 mphSnowLight Snow
2:34 AM6.8 °F1.4 °F79 %30.13 in7.0 miCalmSnowLight Snow
2:54 AM6.8 °F1.4 °F79 %30.14 in7.0 miCalmSnowLight Snow
3:14 AM5.0 °F1.4 °F85 %30.13 in10.0 miCalmScattered Clouds
3:34 AM5.0 °F1.4 °F85 %30.13 in10.0 miCalmClear
3:54 AM3.2 °F-0.4 °F85 %30.13 in10.0 miCalmClear
4:14 AM5.0 °F1.4 °F85 %30.14 in10.0 miCalmClear
4:34 AM3.2 °F-0.4 °F85 %30.14 in10.0 miSW (220°)3.5 mphClear
4:54 AM5.0 °F1.4 °F85 %30.13 in10.0 miSW (230°)4.6 mphClear
5:14 AM5.0 °F1.4 °F85 %30.13 in10.0 miWest (260°)3.5 mphClear
5:34 AM5.0 °F1.4 °F85 %30.13 in10.0 miWNW (290°)3.5 mphClear
5:54 AM3.2 °F-2.2 °F78 %30.14 in10.0 miWNW (300°)3.5 mphClear
6:14 AM1.4 °F-2.2 °F85 %30.14 in10.0 miNW (310°)3.5 mphClear
6:34 AM5.0 °F1.4 °F85 %30.16 in10.0 miNW (320°)8.1 mphClear
6:54 AM6.8 °F3.2 °F85 %30.17 in10.0 miNW (320°)10.4 mphClear
7:14 AM6.8 °F1.4 °F79 %30.18 in10.0 miNW (310°)9.2 mphClear
7:34 AM6.8 °F1.4 °F79 %30.19 in10.0 miNW (320°)8.1 mphClear
7:54 AM6.8 °F1.4 °F79 %30.20 in10.0 miNNW (330°)11.5 mph17.3 mphClear
8:14 AM6.8 °F1.4 °F79 %30.20 in10.0 miNW (320°)10.4 mph17.3 mphClear
8:34 AM5.0 °F-0.4 °F78 %30.22 in10.0 miNNW (330°)13.8 mphClear
8:54 AM6.8 °F-0.4 °F72 %30.23 in10.0 miNW (320°)11.5 mphClear
9:14 AM5.0 °F-0.4 °F78 %30.24 in10.0 miNNW (330°)12.7 mph18.4 mphClear
9:34 AM6.8 °F-0.4 °F72 %30.26 in10.0 miNW (320°)13.8 mph21.9 mphClear
9:54 AM6.8 °F-2.2 °F67 %30.27 in2.0 miNNW (330°)17.3 mph24.2 mphSnowLight Snow
10:14 AM5.0 °F-2.2 °F72 %30.29 in5.0 miNW (320°)13.8 mph24.2 mphHaze
10:34 AM5.0 °F-2.2 °F72 %30.31 in2.5 miNNW (340°)18.4 mphSnowLight Snow
10:54 AM3.2 °F-4.0 °F72 %30.33 in5.0 miNNW (330°)19.6 mph25.3 mphHaze
11:14 AM3.2 °F-4.0 °F72 %30.34 in7.0 miNNW (340°)19.6 mphMostly Cloudy
11:34 AM3.2 °F-5.8 °F66 %30.35 in7.0 miNorth (350°)23.0 mph26.5 mphScattered Clouds
11:54 AM3.2 °F-5.8 °F66 %30.34 in7.0 miNNW (340°)23.0 mphClear
12:14 PM3.2 °F-5.8 °F66 %30.35 in10.0 miNorth (350°)25.3 mph28.8 mphClear
12:34 PM3.2 °F-5.8 °F66 %30.36 in7.0 miNorth (350°)21.9 mph29.9 mphScattered Clouds
12:54 PM3.2 °F-5.8 °F66 %30.37 in10.0 miNorth (350°)24.2 mph29.9 mphClear
1:14 PM3.2 °F-5.8 °F66 %30.37 in7.0 miNNW (340°)20.7 mph27.6 mphScattered Clouds
1:34 PM1.4 °F-7.6 °F66 %30.37 in10.0 miNorth (350°)21.9 mph28.8 mphScattered Clouds
1:54 PM1.4 °F-7.6 °F66 %30.39 in10.0 miNNW (340°)20.7 mph29.9 mphScattered Clouds
2:14 PM1.4 °F-7.6 °F66 %30.40 in10.0 miNorth (350°)23.0 mph29.9 mphScattered Clouds
2:34 PM1.4 °F-9.4 °F61 %30.41 in10.0 miNNW (340°)20.7 mph31.1 mphScattered Clouds
2:53 PM1.4 °F-7.6 °F66 %30.42 in5.0 miNorth (350°)21.9 mph27.6 mphHaze
3:14 PM1.4 °F-9.4 °F61 %30.43 in10.0 miNorth (360°)21.9 mph28.8 mphScattered Clouds
3:34 PM-0.4 °F-9.4 °F66 %30.45 in10.0 miNorth (350°)20.7 mphScattered Clouds
3:54 PM-0.4 °F-9.4 °F66 %30.45 in10.0 miNorth (360°)20.7 mph26.5 mphScattered Clouds
4:14 PM-0.4 °F-11.2 °F60 %30.47 in10.0 miNorth (350°)26.5 mphClear
4:33 PM-0.4 °F-11.2 °F60 %30.48 in10.0 miNorth (350°)25.3 mph32.2 mphClear
4:54 PM-2.2 °F-11.2 °F66 %30.50 in7.0 miNorth (360°)21.9 mphScattered Clouds
5:14 PM-4.0 °F-9.4 °F78 %30.52 in5.0 miNorth (350°)20.7 mphHaze
5:33 PM-4.0 °F-11.2 °F71 %30.51 in7.0 miNorth (360°)19.6 mphScattered Clouds
5:54 PM-5.8 °F-13.0 °F71 %30.52 in10.0 miNorth (350°)20.7 mphScattered Clouds
6:14 PM-5.8 °F-16.6 °F60 %30.53 in10.0 miNorth (350°)19.6 mph25.3 mphClear
6:34 PM-5.8 °F-16.6 °F60 %30.54 in10.0 miNorth (350°)20.7 mph25.3 mphClear
6:54 PM-5.8 °F-16.6 °F60 %30.54 in10.0 miNorth (360°)20.7 mphClear
7:14 PM-7.6 °F-18.4 °F59 %30.54 in10.0 miNorth (360°)21.9 mphClear
7:34 PM-7.6 °F-16.6 °F65 %30.54 in10.0 miNorth (350°)19.6 mphClear
7:53 PM-7.6 °F-18.4 °F59 %30.56 in10.0 miNorth (360°)20.7 mphClear
8:14 PM-7.6 °F-16.6 °F65 %30.56 in10.0 miNorth (350°)16.1 mphClear
8:34 PM-7.6 °F-16.6 °F65 %30.56 in10.0 miNorth (360°)12.7 mphClear
8:54 PM-9.4 °F-18.4 °F65 %30.58 in10.0 miNorth (350°)11.5 mphClear
9:14 PM-9.4 °F-16.6 °F71 %30.58 in10.0 miNorth (360°)10.4 mphClear
9:34 PM-9.4 °F-16.6 °F71 %30.58 in5.0 miNorth (10°)12.7 mphHaze
10:14 PM-9.4 °F-20.2 °F59 %30.60 in10.0 miNorth (360°)13.8 mphClear
10:34 PM-11.2 °F-20.2 °F64 %30.61 in10.0 miNorth (350°)11.5 mphClear
10:54 PM-11.2 °F-20.2 °F64 %30.61 in10.0 miNorth (360°)13.8 mphClear
11:13 PM-11.2 °F-20.2 °F64 %30.61 in10.0 miNorth (360°)11.5 mphClear
11:34 PM-11.2 °F-20.2 °F64 %30.61 in10.0 miNorth (350°)9.2 mphClear
11:54 PM-11.2 °F-20.2 °F64 %30.62 in10.0 miNorth (350°)5.8 mphClear
Hourly data recorded from KVVV, located miles away from Big Stone City, South Dakota







STORIES FROM OUR PARTNERS